Погода в Новочернореченском

Россия / Красноярский край     56°16′06″N   91°05′27″E
темп.,
°C
ветер,
м/с
пор.,
м/с
влажн.,
%
обл.,
%
осадки,
мм/ч
давл.,
гПа
погр.,
м
26 февраля, пт
пт2601:00−21юз3129494 0.0 1024520
04:00−22юз279485 0.0 1024290
07:00−21юз5128593 0.1 10251058
10:00−22зюз6147891 0.0 10261962
13:00−21зюз6107996 0.1 10281932
16:00−21зюз61079100 0.1 10291718
19:00−23юз31091100 0.1 10311098
22:00−23юз31296100 0.1 10321397
27 февраля, сб
сб2701:00−24зюз31097100 0.3 1033984
04:00−24юз31196100 0.1 10341097
07:00−24юз41195100 0.3 10341095
10:00−23зюз5991100 0.1 10341121
13:00−21зюз5988100 0.3 10341180
16:00−21зюз4889100 0.2 10341168
19:00−22зюз2897100 0.3 1035718
22:00−23зюз21098100 0.1 1036728
28 февраля, вс
вс2801:00−23зюз2998100 0.3 1037680
04:00−24юз2998100 0.1 1037514
07:00−24юз3897100 0.3 1038506
10:00−22зюз4992100 0.1 1038770
13:00−20зюз3689100 0.3 1038803
16:00−19юз3587100 0.1 1037767
19:00−24ююз129392 0.1 103620
22:00−24ююв129132 0.0 103620
1 марта, пн
пн101:00−24юв229260 0.0 103420
04:00−25вюв229169 0.0 103228
07:00−24вюв239364 0.0 102929
10:00−19вюв249297 0.0 1026169
13:00−13в359398 0.2 1022312
16:00−12всв3693100 0.3 1020349
19:00−16всв3796100 0.8 1018239
22:00−16в3895100 0.4 1017255
2 марта, вт
вт201:00−16в4995100 0.9 1015258
04:00−16в4996100 1.1 1013259
07:00−16в4896100 2.8 1013243
10:00−15всв3696100 1.4 1011201
13:00−12всв3595100 2.2 1011205
16:00−12св3595100 1.4 1011216
19:00−14св2397100 2.3 1013164
22:00−17в1297100 0.2 101441